Location: Ceske Budejovice
(48.9830°N, 14.4670°E)
Time: 06:45:25
(UTC+02:00)

ISS - Pass Details

Date: 04 July 2022
Orbit: 412 x 420 km, 51.6° (Epoch: 18 August)

Event Time Altitude Azimuth Distance (km) Brightness Sun altitude
Exits shadow 04:03:29 - 264° (W) 1,952 -0.8 -8.0°
Reaches altitude 10° 04:04:36 10° 266° (W) 1,498 -1.4 -7.9°
Maximum altitude 04:07:56 62° 348° (NNW) 477 -3.3 -7.6°
Drops below altitude 10° 04:11:17 10° 70° (ENE) 1,507 0.2 -7.2°
Sets 04:13:25 0° 74° (ENE) 2,374 1.2 -7.0°
